Location: *
(37.9500°N, 27.3666°E)
Time: 14:40:48
(UTC+00:00)

Tiangong - Visible Passes

Search period start: 01 December 2022 00:00
Search period end: 11 December 2022 00:00
Orbit: 385 x 393 km, 41.5° (Epoch: 01 December)

Date Brightness Start Highest point End Pass type
(mag) Time Alt. Az. Time Alt. Az. Time Alt. Az.
01 Dec -2.2 16:07:57 10° WSW 16:11:08 89° NNW 16:12:09 40° ENE visible
02 Dec -0.7 16:46:51 10° W 16:49:01 34° NW 16:49:01 34° NW visible
03 Dec -1.9 15:48:27 10° W 15:51:36 58° NNW 15:53:31 21° ENE visible
03 Dec 1.4 17:25:45 10° WNW 17:25:49 10° WNW 17:25:49 10° WNW visible
04 Dec -1.4 16:27:21 10° WNW 16:30:17 41° N 16:30:17 41° N visible
05 Dec -1.5 15:28:52 10° W 15:31:57 45° N 15:34:43 12° ENE visible
05 Dec 0.6 17:06:02 10° WNW 17:07:00 18° WNW 17:07:00 18° WNW visible
06 Dec -1.5 16:07:37 10° WNW 16:10:40 43° N 16:11:26 35° NE visible
07 Dec -0.8 16:46:06 10° WNW 16:48:11 37° WNW 16:48:11 37° WNW visible
08 Dec -1.9 15:47:37 10° WNW 15:50:44 52° N 15:52:41 20° E visible
08 Dec 1.3 17:24:37 10° W 17:24:58 13° W 17:24:58 13° W visible
09 Dec -2.0 16:25:59 10° WNW 16:29:10 72° SSW 16:29:33 61° SSE visible
10 Dec -2.2 15:27:24 10° WNW 15:30:35 75° NNE 15:33:45 10° ESE visible
10 Dec 0.4 17:04:41 10° W 17:06:35 21° SW 17:06:35 21° SW visible
